Preview of NWS' New Version of Forecast
This preview is not operational and should not be used for support decisions.

Regional Weather Roundup (RWR)

Issued by National Weather Service (NWS)

                            
000
ASUS43 KDMX 181201
RWRIA 

WEATHER ROUNDUP FOR IOWA
NATIONAL WEATHER SERVICE DES MOINES IA
700 AM CDT THU APR 18 2019

NOTE: "FAIR" INDICATES FEW OR NO CLOUDS BELOW 12,000 FEET WITH NO
SIGNIFICANT WEATHER AND/OR OBSTRUCTIONS TO VISIBILITY.

* - THESE STATIONS ARE NOT NWS STATIONS...THUS NOT UNDER NWS
QUALITY CONTROL.  THEY ALSO DO NOT REPORT WEATHER SUCH 
AS PRECIPITATION OR FOG.  

IAZ001>003-012>014-020>022-031>034-043>046-181300-
   NORTHWEST IOWA
  
CITY           SKY/WX    TMP DP  RH WIND       PRES   REMARKS
CARROLL *      CLOUDY    43  41  93 NW20      29.79F                  
CHEROKEE *     CLOUDY    39  39  99 N8        29.83S WCI  34          
DENISON *      CLOUDY    39  39 100 N7        29.82F WCI  34          
LE MARS *      CLOUDY    43  43 100 NW9       29.84R                  
SHELDON *      MOCLDY    39  39 100 NW7       29.81S WCI  34          
SIOUX CITY     CLOUDY    45  41  86 NW15      29.83F                  
6HR MIN TEMP:  42; 6HR MAX TEMP:  47;                                

SPENCER        CLOUDY    43  38  82 NW12      29.81S                  
6HR MIN TEMP:  39; 6HR MAX TEMP:  44;                                

STORM LAKE *   CLOUDY    37  37 100 NW12      29.77F WCI  30          
$$
 
IAZ055>058-069>071-079>083-090>094-181300-
   SOUTHWEST IOWA
  
CITY           SKY/WX    TMP DP  RH WIND       PRES   REMARKS
ATLANTIC *     MOCLDY    41  41 100 NW9       29.81R                  
AUDUBON *      MOCLDY    39  37  93 CALM      29.81S                  
CLARINDA *     CLOUDY    45  39  81 N21G28    29.82R                  
COUNCIL BLFS * CLOUDY    45  45 100 N10G17    29.82R                  
CRESTON *      CLOUDY    43  37  81 N17G25    29.78R                  
HARLAN  *      MOCLDY    39  39 100 NW9       29.82R WCI  33          
LAMONI         CLOUDY    45  38  76 N13G23    29.76R                  
6HR MIN TEMP:  45; 6HR MAX TEMP:  49;                                

RED OAK *      CLOUDY    43  41  93 N10       29.83R                  
SHENANDOAH *   CLOUDY    45  41  87 N13       29.81R                  
$$
 
IAZ047>049-059>061-072>074-084-181300-
   CENTRAL IOWA
  
CITY           SKY/WX    TMP DP  RH WIND       PRES   REMARKS
AMES           CLOUDY    44  38  79 N20       29.73F                  
6HR MIN TEMP:  44; 6HR MAX TEMP:  47;                                

ANKENY *       CLOUDY    45  37  76 MISG      29.75S                  
BOONE *        CLOUDY    43  41  93 NW18G26   29.73F                  
CHARITON *     CLOUDY    45  41  87 NW15      29.74R                  
DES MOINES     CLOUDY    45  37  73 N15G24    29.74F                  
6HR MIN TEMP:  44; 6HR MAX TEMP:  47;                                

GRINNELL*      CLOUDY    41  38  86 NW20      29.69F                  
KNOXVILLE *    CLOUDY    45  45 100 NW18G28   29.73R                  
MARSHALLTOWN   CLOUDY    43  38  82 N22G32    29.67F                  
6HR MIN TEMP:  43; 6HR MAX TEMP:  47;                                

NEWTON *       CLOUDY    43  39  87 NW14G25   29.71R                  
PELLA *        CLOUDY    44  37  78 NW16G25   29.75R                  
PERRY *        CLOUDY    44  40  87 NW15G21   29.76F                  
$$
 
IAZ004>006-015-016-023>025-035-036-181300-
   NORTH CENTRAL IOWA
  
CITY           SKY/WX    TMP DP  RH WIND       PRES   REMARKS
ALGONA *       CLOUDY    41  41 100 NW15      29.77R                  
CLARION *      CLOUDY    43  39  87 NW15G21   29.75F                  
ESTHERVILLE    MOCLDY    38  37  97 NW12      29.80R WCI  30          
6HR MIN TEMP:  38; 6HR MAX TEMP:  41;                                

FORT DODGE *   CLOUDY    42  38  85 N10G17    29.76                   
MASON CITY     CLOUDY    41  39  93 N16G29    29.75R                  
6HR MIN TEMP:  41; 6HR MAX TEMP:  42;                                

FOREST CITY *  CLOUDY    41  39  93 N12       29.75S                  
IOWA FALLS *   CLOUDY    42  39  88 NW15      29.72F                  
$$

IAZ007>011-017>019-026>030-037>042-050>054-066-181300-
   NORTHEAST IOWA
  
CITY           SKY/WX    TMP DP  RH WIND       PRES   REMARKS
CEDAR RAPIDS   CLOUDY    43  40  89 NW15      29.62F                  
6HR MIN TEMP:  43; 6HR MAX TEMP:  47;                                

CHARLES CITY * CLOUDY    41  37  87 N21G28    29.70F                  
CLINTON *      CLOUDY    47  44  90 NW15      29.60F                  
DECORAH *      CLOUDY    41  37  87 NW16      29.66S                  
DUBUQUE        CLOUDY    45  40  82 NW17G25   29.60F                  
6HR MIN TEMP:  45; 6HR MAX TEMP:  50;                                

MONTICELLO *   CLOUDY    45  43  93 NW14      29.61F                  
OELWEIN *      CLOUDY    41  41 100 NW23      29.64F                  
WATERLOO       CLOUDY    44  37  76 N18       29.65F                  
6HR MIN TEMP:  44; 6HR MAX TEMP:  48;                                

$$
 
IAZ064-065-067-068-078-181300-
   EAST CENTRAL IOWA
  
CITY           SKY/WX    TMP DP  RH WIND       PRES   REMARKS
DAVENPORT      CLOUDY    47  42  83 NW15      29.62F                  
6HR MIN TEMP:  47; 6HR MAX TEMP:  54;                                

IOWA CITY      CLOUDY    46  40  79 NW18G25   29.65F                  
6HR MIN TEMP:  46; 6HR MAX TEMP:  50;                                

MT. PLEASANT * CLOUDY    46  43  87 NW14G23   29.70R                  
MUSCATINE *    CLOUDY    46  41  81 NW17      29.63S                  
QUAD CITIES    CLOUDY    50  43  77 NW13G23   29.59F                  
6HR MIN TEMP:  50; 6HR MAX TEMP:  57; 6HR PCP: TRACE;                

$$
 
IAZ062-063-075>077-085>089-095>099-181300-
   SOUTHEAST IOWA
  
CITY           SKY/WX    TMP DP  RH WIND       PRES   REMARKS
BURLINGTON     CLOUDY    47  42  83 NW12      29.66R                  
6HR MIN TEMP:  47; 6HR MAX TEMP:  55; 6HR PCP:  0.54;                

FAIRFIELD *    CLOUDY    45  39  81 NW16G23   29.69R                  
FORT MADISON * CLOUDY    46  45  93 NW9       29.68R                  
KEOKUK *       CLOUDY    46  45  93 NW10      29.66R                  
OSKALOOSA *    CLOUDY    44  38  79 N15G21    29.72R                  
CENTERVILLE *  CLOUDY    45  41  87 NW17G25   29.74R                  
OTTUMWA        CLOUDY    45  38  76 NW22G28   29.71R                  
6HR MIN TEMP:  45; 6HR MAX TEMP:  50;                                

WASHINGTON *   CLOUDY    46  43  87 NW18G29   29.68R                  
$$

ABBREVIATIONS USED IN REMARKS
   TC - TEMPERATURES IN CELSIUS
  WCI - WIND CHILL INDEX
   HX - HEAT INDEX
  VSB - VISIBILITY  
$$